Aérodrome :
LOGIN :

S'inscrire | Disclaimer

   EN    FR    IT 

 










Légende :    VFR   VFR Marginal   IFR   IFR Intensif   IFR Très Intensif
Visi : 
Plafond : 
>= 8 km
>= 3000ft
5 à 8 km
1000 à 3000 ft
1500m à 5 km
500 à 1000 ft
800 à 1500m
200 à 500 ft
< 800m
< 200 ft
Symboles :   Orages  Brouillard  Fortes neiges  Fortes précipitations  Vent > 20 kt
SIGMETs :   Divers  Orages  Givrage  Turbulence  Onde Orograph.  Cendres Volcan.






- Altitude de l'aérodrome : 13 ft
- Code IATA : OST


EBOS - Oostend bruges Int.

DERNIER METAR :
  • 171750Z 30010KT 9999 BKN023 06/02 Q1025 NOSIG

METARs EXPIRÉS :
  • 171720Z 30007KT 9999 SCT024 05/02 Q1025 NOSIG
  • 171650Z 32007KT 9999 BKN024 06/02 Q1024 NOSIG
  • 171620Z 32009KT 9999 BKN023 06/03 Q1024 NOSIG
  • 171550Z 32009KT 9999 BKN023 06/03 Q1024 NOSIG

TAF TAF EBOS
Valide du 17 à 18h jusqu'au 19 à 00h UTC


171716Z 1718/1824 29009KT 9999 SCT015 SCT040
BECMG 1815/1817 21012KT
TEMPO 1821/1824 20015G25KT 4000 RA SCT008 BKN012



MET'MAP, la Météo Aéronautique d'un coup d'oeil ! - Copyright ORBIFLY Décembre 2007 - Disclaimer

ORBIFLY MET'MAP TEAM :

Programmation & Développement : Alexandra Zaïnal
Sur une idée originale de : Baudouin d'Aumeries
Assistance à la programmation : Marc-Olivier Méhu
Soutien technique & logistique : Manuel Goepfert

Contact : metmap@orbifly.com




SOURCES & CREDITS :

   NOAA